[[{"header":{"parameterUnit":"m.s-1","parameterCategory":1,"la1":30.2992,"la2":30.254,"lo1":-89.0895,"lo2":-89.0443,"dy":0.0025,"dx":0.0025,"nx":19,"ny":19,"refTime":"2026-05-20T09:00:00:Z","depth":0,"parameterNumber":2,"parameterNumberName":"U-component_of_WINDS"},"data":[0,0,0,-2.0248,-2.0249,-2.0296,-2.0296,-2.0363,-2.0363,0,0,0,0,0,0,0,0,0,0,0,-2.0239,-2.0239,-2.0248,-2.025,-2.0296,-2.0296,-2.0362,-2.0363,0,0,0,0,0,0,0,0,0,0,0,-2.0239,-2.0239,-2.024,-2.025,-2.0296,-2.0296,-2.0362,-2.0325,0,0,0,0,0,0,0,0,0,0,-2.0279,-2.0274,-2.0239,-2.024,-2.025,-2.0296,-2.0296,-2.0323,-2.0327,-2.0345,0,-2.0361,0,-2.0363,-2.0368,-2.0368,0,0,0,-2.0247,-2.027,-2.0279,-2.024,-2.0251,-2.0296,-2.0274,-2.0325,-2.033,-2.035,-2.0362,-2.0364,-2.0364,-2.0369,-2.0369,-2.048,-2.0481,0,0,-2.0244,-2.0249,-2.0276,-2.0282,-2.0275,-2.0273,-2.0276,-2.0328,-2.0341,-2.0362,-2.0366,-2.0365,-2.0369,-2.037,-2.0479,-2.048,0,0,0,-2.0239,-2.0248,-2.0255,-2.028,-2.0287,-2.0274,-2.0277,-2.0339,-2.0341,-2.0366,-2.0366,-2.0369,-2.037,-2.0479,-2.048,-2.0518,0,0,0,-2.0237,-2.0245,-2.0254,-2.0258,-2.0287,-2.0314,-2.0287,-2.0337,-2.0343,-2.0366,-2.0369,-2.0371,-2.0478,-2.0479,-2.0515,-2.0535,0,0,0,-2.0234,-2.0244,-2.0252,-2.0258,-2.0278,-2.0313,-2.0317,-2.0338,-2.0343,-2.0368,-2.0371,-2.0477,-2.0479,-2.0513,-2.0531,-2.0566,0,0,0,-2.0233,-2.0285,-2.0253,-2.0311,-2.0278,-2.0336,-2.0317,-2.036,-2.0386,-2.037,-2.0478,-2.048,-2.0512,-2.0529,-2.0563,-2.0596,-2.061,0,0,-2.0302,-2.0294,-2.0328,-2.03,-2.0365,-2.0328,-2.0399,-2.0418,-2.0416,-2.0459,-2.0462,-2.0516,-2.0531,-2.0565,-2.0688,-2.0699,0,0,0,-2.0351,-2.0376,-2.0392,-2.0417,-2.0433,-2.0449,-2.0456,-2.0464,-2.05,-2.0439,-2.0538,-2.0546,-2.0567,-2.0582,-2.0592,-2.0609,-2.0487,-2.0487,-2.0487,-2.0456,-2.045,-2.0506,-2.0506,-2.0532,-2.0539,-2.0559,-2.0571,-2.0557,-2.0581,-2.0593,-2.0669,-2.0687,-2.0694,-2.0712,-2.061,-2.0611,-2.0611,-2.0611,-2.0556,-2.059,-2.0572,-2.0619,-2.0614,-2.0654,-2.0664,-2.0653,-2.069,-2.0658,-2.0676,-2.0642,-2.0707,-2.0722,-2.0614,-2.0613,-2.0613,-2.0612,-2.0612,-2.0624,-2.064,-2.0648,-2.0685,-2.0714,-2.0712,-2.0749,-2.0742,-2.0736,-2.0753,-2.0766,-2.0765,-2.0764,-2.076,-2.076,-2.076,-2.076,-2.0761,-2.0761,-2.0692,-2.07,-2.0731,-2.0753,-2.0769,-2.0789,-2.0798,-2.0814,-2.0829,-2.0821,-2.0822,-2.0806,-2.0714,-2.0691,-2.0765,-2.0764,-2.0763,-2.0763,-2.0763,-2.0796,-2.0771,-2.0819,-2.0836,-2.0861,-2.0891,-2.0882,-2.0915,-2.0927,-2.0945,-2.0926,-2.0859,-2.085,-2.0842,-2.0823,-2.0927,-2.0927,-2.0927,-2.0927,-2.0853,-2.0848,-2.0896,-2.0922,-2.0947,-2.0944,-2.1,-2.1008,-2.1013,-2.102,-2.1004,-2.0978,-2.0971,-2.0966,-2.0956,-2.0938,-2.1068,-2.1068,-2.1068,-2.0917,-2.0914,-2.0962,-2.0966,-2.0986,-2.1004,-2.1056,-2.1087,-2.1087,-2.1074,-2.1025,-2.1019,-2.0978,-2.0964,-2.095,-2.0934,-2.0901,0,0]},{"header":{"parameterUnit":"m.s-1","parameterCategory":1,"la1":30.2992,"la2":30.254,"lo1":-89.0895,"lo2":-89.0443,"dy":0.0025,"dx":0.0025,"nx":19,"ny":19,"refTime":"2026-05-20T09:00:00:Z","depth":0,"parameterNumber":3,"parameterNumberName":"V-component_of_WINDS"},"data":[0,0,0,3.4095,3.4096,3.4135,3.4136,3.4189,3.4189,0,0,0,0,0,0,0,0,0,0,0,3.4086,3.4087,3.4095,3.4096,3.4135,3.4136,3.4189,3.4189,0,0,0,0,0,0,0,0,0,0,0,3.4086,3.4087,3.4087,3.4096,3.4135,3.4136,3.4189,3.4157,0,0,0,0,0,0,0,0,0,0,3.4118,3.4114,3.4087,3.4087,3.4096,3.4135,3.4136,3.4156,3.4159,3.4173,0,3.4187,0,3.4189,3.4193,3.4193,0,0,0,3.4093,3.4111,3.4119,3.4087,3.4097,3.4135,3.4117,3.4158,3.4162,3.4177,3.4187,3.4189,3.419,3.4194,3.4194,3.4282,3.4283,0,0,3.4091,3.4095,3.4116,3.4122,3.4118,3.4116,3.4118,3.416,3.4171,3.4187,3.419,3.4191,3.4194,3.4194,3.4282,3.4282,0,0,0,3.4086,3.4093,3.41,3.412,3.4127,3.4117,3.412,3.4169,3.4171,3.4191,3.4191,3.4194,3.4195,3.4281,3.4282,3.4312,0,0,0,3.4085,3.4091,3.4099,3.4102,3.4126,3.4149,3.4128,3.4168,3.4173,3.4191,3.4194,3.4196,3.428,3.4281,3.431,3.4326,0,0,0,3.4083,3.4091,3.4098,3.4102,3.412,3.4148,3.4152,3.4169,3.4173,3.4194,3.4196,3.428,3.4281,3.4308,3.4323,3.4349,0,0,0,3.4081,3.4124,3.4098,3.4146,3.4119,3.4167,3.4152,3.4187,3.4208,3.4195,3.428,3.4282,3.4308,3.4321,3.4347,3.4372,3.4383,0,0,3.4138,3.4131,3.4159,3.4137,3.4191,3.4161,3.4218,3.4233,3.4231,3.4265,3.4267,3.4311,3.4322,3.4349,3.4445,3.4454,0,0,0,3.4178,3.4199,3.4212,3.4233,3.4246,3.4258,3.4265,3.427,3.4298,3.425,3.4328,3.4335,3.435,3.4362,3.4369,3.4381,3.4288,3.4287,3.4287,3.4264,3.4259,3.4305,3.4305,3.4326,3.4331,3.4347,3.4355,3.4344,3.4363,3.4372,3.4431,3.4445,3.445,3.4463,3.4386,3.4386,3.4386,3.4386,3.4346,3.4373,3.4358,3.4397,3.4391,3.4423,3.443,3.4421,3.4448,3.4424,3.4437,3.4409,3.446,3.4471,3.4388,3.4388,3.4388,3.4387,3.4387,3.4401,3.4413,3.4419,3.4449,3.4471,3.4469,3.4497,3.4491,3.4485,3.4498,3.4507,3.4506,3.4504,3.4503,3.4503,3.4503,3.4503,3.4504,3.4504,3.4455,3.4461,3.4486,3.4503,3.4515,3.453,3.4536,3.4547,3.4558,3.4551,3.4551,3.4537,3.4467,3.4448,3.4507,3.4506,3.4506,3.4506,3.4505,3.4538,3.4518,3.4556,3.4568,3.4587,3.4609,3.4601,3.4625,3.4633,3.4646,3.463,3.4579,3.4572,3.4566,3.4551,3.4632,3.4632,3.4632,3.4632,3.4584,3.458,3.4616,3.4636,3.4654,3.4651,3.4692,3.4696,3.4697,3.4702,3.4689,3.4669,3.4663,3.4659,3.4651,3.4636,3.4738,3.4738,3.4738,3.4634,3.4631,3.4668,3.467,3.4684,3.4696,3.4734,3.4756,3.4753,3.4742,3.4705,3.47,3.4667,3.4657,3.4645,3.4632,3.4606,0,0]}]]